| time (UTC) | temp C | wind direction | speed KPH | gust KPH | rain 1hr cm | rain 24hr cm | rain mn cm | humidity % | barometer mb |
| 20260504045333 | 27 | 257 | 9.7 | 24.1 | 0.00 | 0.00 | 0.00 | 23 | 1007.9 |
| 20260504044330 | 27 | 242 | 8.0 | 20.9 | 0.00 | 0.00 | 0.00 | 23 | 1007.8 |
| 20260504043348 | 28 | 236 | 6.4 | 22.5 | 0.00 | 0.00 | 0.00 | 22 | 1007.8 |
| 20260504042326 | 28 | 235 | 4.8 | 20.9 | 0.00 | 0.00 | 0.00 | 21 | 1007.8 |
| 20260504041330 | 28 | 238 | 11.3 | 25.7 | 0.00 | 0.00 | 0.00 | 20 | 1007.5 |
| 20260504040330 | 28 | 213 | 11.3 | 19.3 | 0.00 | 0.00 | 0.00 | 19 | 1007.2 |
| 20260504035330 | 28 | 246 | 9.7 | 19.3 | 0.00 | 0.00 | 0.00 | 18 | 1007.2 |
| 20260504034327 | 28 | 212 | 8.0 | 17.7 | 0.00 | 0.00 | 0.00 | 17 | 1006.7 |
| 20260504033330 | 29 | 236 | 3.2 | 12.9 | 0.00 | 0.00 | 0.00 | 17 | 1006.4 |
| 20260504032346 | 29 | 213 | 1.6 | 12.9 | 0.00 | 0.00 | 0.00 | 17 | 1006.2 |
| 20260504031345 | 30 | 251 | 8.0 | 12.9 | 0.00 | 0.00 | 0.00 | 17 | 1006.0 |
| 20260504030342 | 30 | 237 | 9.7 | 19.3 | 0.00 | 0.00 | 0.00 | 17 | 1005.8 |
| 20260504025403 | 30 | 264 | 6.4 | 22.5 | 0.00 | 0.00 | 0.00 | 16 | 1005.5 |
| 20260504024344 | 30 | 223 | 8.0 | 22.5 | 0.00 | 0.00 | 0.00 | 15 | 1005.2 |
| 20260504023341 | 30 | 281 | 11.3 | 22.5 | 0.00 | 0.00 | 0.00 | 14 | 1004.9 |
| 20260504022337 | 31 | 227 | 8.0 | 16.1 | 0.00 | 0.00 | 0.00 | 15 | 1004.9 |
| 20260504021336 | 31 | 260 | 8.0 | 30.6 | 0.00 | 0.00 | 0.00 | 15 | 1004.7 |
| 20260504020356 | 31 | 223 | 11.3 | 27.4 | 0.00 | 0.00 | 0.00 | 15 | 1004.7 |
| 20260504015337 | 31 | 209 | 6.4 | 24.1 | 0.00 | 0.00 | 0.00 | 15 | 1004.1 |
| 20260504014334 | 32 | 268 | 8.0 | 24.1 | 0.00 | 0.00 | 0.00 | 15 | 1004.1 |
| 20260504013333 | 32 | 237 | 11.3 | 27.4 | 0.00 | 0.00 | 0.00 | 16 | 1004.1 |
| 20260504012332 | 32 | 316 | 11.3 | 24.1 | 0.00 | 0.00 | 0.00 | 15 | 1004.0 |
| 20260504011331 | 33 | 263 | 8.0 | 29.0 | 0.00 | 0.00 | 0.00 | 15 | 1004.2 |
| 20260504010333 | 33 | 248 | 3.2 | 27.4 | 0.00 | 0.00 | 0.00 | 14 | 1004.1 |
| 20260504005332 | 33 | 241 | 11.3 | 30.6 | 0.00 | 0.00 | 0.00 | 14 | 1004.0 |
| 20260504004332 | 33 | 252 | 11.3 | 29.0 | 0.00 | 0.00 | 0.00 | 14 | 1004.1 |
| 20260504003332 | 34 | 261 | 6.4 | 22.5 | 0.00 | 0.00 | 0.00 | 14 | 1004.1 |
| 20260504002337 | 34 | 216 | 9.7 | 29.0 | 0.00 | 0.00 | 0.00 | 13 | 1004.0 |
| 20260504001336 | 34 | 307 | 12.9 | 32.2 | 0.00 | 0.00 | 0.00 | 13 | 1004.0 |
| 20260504000337 | 35 | 206 | 12.9 | 25.7 | 0.00 | 0.00 | 0.00 | 13 | 1004.0 |
| 20260503235356 | 36 | 231 | 9.7 | 27.4 | 0.00 | 0.00 | 0.00 | 12 | 1004.0 |
| 20260503234334 | 36 | 268 | 9.7 | 24.1 | 0.00 | 0.00 | 0.00 | 12 | 1003.8 |
| 20260503233358 | 35 | 200 | 4.8 | 25.7 | 0.00 | 0.00 | 0.00 | 12 | 1003.8 |
| 20260503232355 | 35 | 281 | 8.0 | 27.4 | 0.00 | 0.00 | 0.00 | 12 | 1003.8 |
| 20260503231331 | 36 | 301 | 1.6 | 19.3 | 0.00 | 0.00 | 0.00 | 13 | 1004.1 |
| 20260503230330 | 36 | 243 | 6.4 | 19.3 | 0.00 | 0.00 | 0.00 | 12 | 1004.1 |
| 20260503225345 | 36 | 265 | 11.3 | 20.9 | 0.00 | 0.00 | 0.00 | 12 | 1004.4 |
| 20260503224328 | 36 | 264 | 4.8 | 14.5 | 0.00 | 0.00 | 0.00 | 12 | 1004.5 |
| 20260503223345 | 36 | 242 | 4.8 | 14.5 | 0.00 | 0.00 | 0.00 | 12 | 1004.6 |
| 20260503222344 | 36 | 196 | 6.4 | 16.1 | 0.00 | 0.00 | 0.00 | 13 | 1004.8 |
| 20260503221343 | 36 | 191 | 0.0 | 20.9 | 0.00 | 0.00 | 0.00 | 13 | 1005.0 |
| 20260503220402 | 35 | 164 | 9.7 | 27.4 | 0.00 | 0.00 | 0.00 | 13 | 1005.3 |
| 20260503215341 | 36 | 202 | 6.4 | 20.9 | 0.00 | 0.00 | 0.00 | 13 | 1005.4 |
| 20260503214327 | 35 | 171 | 1.6 | 16.1 | 0.00 | 0.00 | 0.00 | 13 | 1005.6 |
| 20260503213346 | 35 | 38 | 0.0 | 14.5 | 0.00 | 0.00 | 0.00 | 15 | 1005.8 |
| 20260503212405 | 35 | 137 | 6.4 | 19.3 | 0.00 | 0.00 | 0.00 | 14 | 1006.0 |
| 20260503211341 | 35 | 178 | 9.7 | 24.1 | 0.00 | 0.00 | 0.00 | 15 | 1006.3 |
| 20260503210343 | 35 | 128 | 12.9 | 29.0 | 0.00 | 0.00 | 0.00 | 14 | 1006.5 |
| 20260503205341 | 35 | 207 | 11.3 | 24.1 | 0.00 | 0.00 | 0.00 | 15 | 1006.5 |
| 20260503204400 | 34 | 180 | 1.6 | 24.1 | 0.00 | 0.00 | 0.00 | 16 | 1006.7 |
| 20260503203337 | 34 | 171 | 9.7 | 25.7 | 0.00 | 0.00 | 0.00 | 16 | 1006.9 |
| 20260503202333 | 35 | 196 | 11.3 | 22.5 | 0.00 | 0.00 | 0.00 | 16 | 1006.9 |
| 20260503201335 | 34 | 162 | 4.8 | 17.7 | 0.00 | 0.00 | 0.00 | 17 | 1007.0 |
| 20260503200355 | 34 | 186 | 0.0 | 11.3 | 0.00 | 0.00 | 0.00 | 17 | 1007.3 |
| 20260503195333 | 33 | 109 | 6.4 | 27.4 | 0.00 | 0.00 | 0.00 | 17 | 1007.5 |
| 20260503194333 | 33 | 165 | 12.9 | 20.9 | 0.00 | 0.00 | 0.00 | 17 | 1007.6 |
| 20260503193332 | 33 | 176 | 9.7 | 22.5 | 0.00 | 0.00 | 0.00 | 19 | 1007.7 |
| 20260503192335 | 33 | 114 | 4.8 | 25.7 | 0.00 | 0.00 | 0.00 | 21 | 1007.9 |
| 20260503191332 | 33 | 181 | 3.2 | 16.1 | 0.00 | 0.00 | 0.00 | 21 | 1008.1 |
| 20260503190351 | 33 | 124 | 9.7 | 16.1 | 0.00 | 0.00 | 0.00 | 20 | 1008.3 |
| 20260503185328 | 32 | 180 | 6.4 | 19.3 | 0.00 | 0.00 | 0.00 | 21 | 1008.4 |
| 20260503184349 | 32 | 171 | 9.7 | 22.5 | 0.00 | 0.00 | 0.00 | 21 | 1008.7 |
| 20260503183331 | 32 | 178 | 8.0 | 16.1 | 0.00 | 0.00 | 0.00 | 21 | 1008.8 |
| 20260503182331 | 32 | 155 | 6.4 | 17.7 | 0.00 | 0.00 | 0.00 | 23 | 1008.9 |
| 20260503181329 | 31 | 164 | 4.8 | 16.1 | 0.00 | 0.00 | 0.00 | 23 | 1009.1 |
| 20260503180329 | 31 | 161 | 6.4 | 14.5 | 0.00 | 0.00 | 0.00 | 24 | 1009.3 |
| 20260503175328 | 31 | 165 | 0.0 | 14.5 | 0.00 | 0.00 | 0.00 | 24 | 1009.5 |
| 20260503174332 | 31 | 179 | 11.3 | 22.5 | 0.00 | 0.00 | 0.00 | 24 | 1009.6 |
| 20260503173332 | 30 | 146 | 3.2 | 14.5 | 0.00 | 0.00 | 0.00 | 24 | 1009.6 |
| 20260503172333 | 30 | 186 | 3.2 | 19.3 | 0.00 | 0.00 | 0.00 | 25 | 1009.6 |
| 20260503171330 | 30 | 54 | 0.0 | 16.1 | 0.00 | 0.00 | 0.00 | 25 | 1009.7 |
| 20260503170332 | 30 | 112 | 8.0 | 17.7 | 0.00 | 0.00 | 0.00 | 25 | 1009.7 |
| 20260503150339 | 26 | 64 | 1.6 | 17.7 | 0.00 | 0.00 | 0.00 | 31 | 1009.7 |
| 20260503131326 | 24 | 65 | 1.6 | 8.0 | 0.00 | 0.00 | 0.00 | 32 | 1008.9 |
| 20260503130329 | 25 | 124 | 1.6 | 9.7 | 0.00 | 0.00 | 0.00 | 32 | 1008.8 |
| 20260503110340 | 25 | 75 | 1.6 | 8.0 | 0.00 | 0.00 | 0.00 | 29 | 1008.5 |
| 20260503090338 | 25 | 69 | 1.6 | 6.4 | 0.00 | 0.00 | 0.00 | 24 | 1008.5 |
| 20260503081335 | 25 | 67 | 0.0 | 0.0 | 0.00 | 0.00 | 0.00 | 24 | 1008.8 |
| 20260503080333 | 25 | 67 | 0.0 | 0.0 | 0.00 | 0.00 | 0.00 | 24 | 1008.8 |
| 20260503072334 | 26 | 67 | 0.0 | 0.0 | 0.00 | 0.00 | 0.00 | 23 | 1009.0 |
| 20260503071333 | 26 | 95 | 0.0 | 1.6 | 0.00 | 0.00 | 0.00 | 23 | 1009.0 |
| 20260503070350 | 26 | 116 | 0.0 | 0.0 | 0.00 | 0.00 | 0.00 | 23 | 1009.1 |
| 20260503060330 | 25 | 197 | 0.0 | 0.0 | 0.00 | 0.00 | 0.00 | 30 | 1008.4 |
| 20260503054348 | 25 | 204 | 0.0 | 0.0 | 0.00 | 0.00 | 0.00 | 31 | 1008.4 |
| 20260503053345 | 25 | 204 | 0.0 | 0.0 | 0.00 | 0.00 | 0.00 | 29 | 1008.3 |
| 20260503052403 | 25 | 205 | 0.0 | 0.0 | 0.00 | 0.00 | 0.00 | 28 | 1008.2 |
| 20260503051344 | 26 | 205 | 0.0 | 0.0 | 0.00 | 0.00 | 0.00 | 28 | 1008.4 |
| 20260503050342 | 26 | 204 | 0.0 | 0.0 | 0.00 | 0.00 | 0.00 | 28 | 1008.4 |